Погода в Тарбагатае

Россия / Республика Бурятия     51°28′53″N   107°21′37″E
темп.,
°C
ветер,
м/с
пор.,
м/с
влажн.,
%
обл.,
%
осадки,
мм/ч
давл.,
гПа
погр.,
м
26 января, ср
ср2623:00−22ю119894 0.0 10389
02:00−24ю119923 0.0 10389
05:00−26ю1110064 0.0 10409
08:00−27ююз1110098 0.0 10419
11:00−21з119998 0.0 104085
14:00−16зсз118868 0.1 1037224
17:00−19зсз009654 0.0 10379
20:00−24ю229951 0.0 10409
27 января, чт
чт2723:00−26ю1110076 0.0 10429
02:00−27ююз1110097 0.0 10429
05:00−28ююз1110097 0.0 10429
08:00−29ююз1110095 0.1 10439
11:00−23з119777 0.0 1042107
14:00−18з228758 0.0 1039254
17:00−20зсз11955 0.0 10409
20:00−26ю2110013 0.0 10439
28 января, пт
пт2823:00−28ю1110026 0.0 10459
02:00−29ю1110059 0.0 10459
05:00−30ююз1110073 0.0 10469
08:00−31ю1110064 0.0 10469
11:00−24зсз009770 0.0 104474
14:00−18св11907 0.0 1040152
17:00−20з00965 0.0 10399
20:00−26ююв1110022 0.0 10429
29 января, сб
сб2923:00−28юв1110073 0.0 10429
02:00−29юв1110076 0.0 10439
05:00−30юв11100100 0.0 10429
08:00−31ююв11100100 0.0 10439
11:00−24ссв0010098 0.0 104175
14:00−18св018849 0.0 1038198
17:00−20ююз009765 0.0 10389
20:00−26ю1110076 0.0 10419
30 января, вс
вс3023:00−27ю1110099 0.0 10429
02:00−29ююз1110099 0.0 10439
05:00−29ююз11100100 0.0 10449
08:00−29ююз11100100 0.1 10459
11:00−23зюз1197100 0.0 1043103
14:00−18з118667 0.1 1041242
17:00−20зюз009571 0.0 10419
20:00−25ююз219996 0.0 10449